Wind_Speed
16 16 16 17 16 15 16 16 14 13 13 14 14 13 13 12 11 10 9 9 8 8 7 6 6 4 4 3 2 2 2 2 2 2 2 3 4 4 5 6 7 8 8 9
15 16 16 15 14 13 14 15 14 13 13 13 12 12 12 11 10 9 9 9 8 8 7 6 6 5 4 3 3 2 2 2 2 2 2 3 3 4 5 6 7 8 8 9
14 15 15 14 13 13 13 13 12 12 12 12 11 11 10 10 10 9 9 8 8 7 7 6 6 5 4 4 3 3 2 2 2 2 2 3 3 4 4 5 6 7 8 9
13 14 14 13 13 12 11 13 12 11 12 11 10 10 10 10 10 10 9 8 7 7 7 6 6 6 5 5 4 4 3 3 3 3 3 3 3 3 4 5 5 6 7 8
11 12 12 12 12 12 11 11 11 10 10 10 10 10 10 11 11 10 9 8 7 7 7 7 7 6 6 6 5 5 4 4 4 4 3 3 3 3 4 4 5 6 7 8
9 10 11 11 11 12 11 10 10 10 9 9 10 10 11 11 11 10 8 8 8 8 8 7 7 6 6 6 6 6 5 5 5 4 4 3 3 3 3 4 4 5 6 7
9 9 10 10 10 11 11 11 10 9 9 9 9 9 9 10 10 10 8 8 8 8 8 7 7 7 7 7 7 6 6 6 5 5 4 4 3 3 4 4 4 5 6 7
8 9 9 10 10 11 11 11 11 9 9 8 8 8 8 9 9 9 8 8 8 8 8 8 7 7 7 7 6 6 6 6 6 6 5 4 4 4 4 4 4 5 6 7
8 8 8 8 9 10 10 10 10 9 8 7 7 8 8 9 9 8 8 8 8 8 8 8 8 7 7 6 6 6 6 6 6 6 5 5 4 4 4 4 4 5 6 8
9 9 8 8 8 8 10 10 10 9 8 7 7 7 8 9 9 9 8 8 8 9 8 8 8 7 7 6 6 6 6 6 6 6 5 5 4 4 4 4 5 6 7 8
9 8 8 9 8 8 9 10 9 9 9 8 7 7 8 9 10 9 9 9 8 8 8 7 7 6 6 6 6 6 6 5 6 6 6 6 5 4 4 5 6 7 8 10
8 9 9 8 9 9 10 9 9 9 9 9 9 8 9 10 9 10 10 10 9 9 8 8 7 7 7 7 7 7 7 6 5 5 6 6 5 5 6 7 8 9 10 11
8 8 8 8 8 8 9 10 9 9 9 9 9 8 9 10 10 11 10 10 10 9 9 9 9 8 9 8 8 8 7 7 6 6 7 7 7 7 8 9 10 11 12 13
8 9 8 8 8 9 9 9 10 10 10 9 9 10 11 11 12 12 11 11 10 10 10 10 10 10 10 10 9 8 8 8 7 7 8 8 8 8 9 10 11 12 14 15
9 9 9 9 9 10 10 10 10 11 11 12 11 11 12 12 12 12 12 12 11 11 11 11 11 11 11 11 11 10 10 9 9 9 9 9 10 10 11 11 13 14 15 16
11 11 10 10 10 10 10 11 11 11 12 13 13 12 13 14 13 13 13 12 12 12 12 12 13 12 12 12 12 12 12 11 11 11 11 12 12 13 13 14 15 16 17 18
12 12 12 12 12 11 10 11 12 12 12 13 13 13 14 15 14 15 14 13 13 13 13 13 13 13 13 13 13 13 13 13 13 12 13 14 14 15 15 16 17 18 19 19
13 13 13 13 14 13 12 13 13 13 14 14 14 13 14 15 15 15 15 14 14 14 14 14 13 14 13 14 14 14 14 14 14 15 14 15 16 16 17 18 19 20 22 23
15 15 15 15 15 13 13 14 14 15 14 15 15 15 15 15 15 15 15 14 14 14 14 14 14 14 14 14 14 15 15 15 16 16 17 17 18 18 20 21 22 23 24 26
17 17 17 16 16 15 14 16 16 16 15 16 16 16 16 16 15 15 15 15 15 14 14 14 14 14 15 15 16 16 16 17 18 18 18 19 20 21 23 24 25 26 27 28
19 19 19 18 18 16 16 17 17 17 17 17 17 16 16 16 16 17 17 16 16 16 16 16 16 16 16 17 17 18 19 19 20 21 22 22 23 25 26 27 28 29 30 31
21 21 20 20 19 17 18 18 17 17 18 18 18 18 17 18 18 18 18 18 18 18 17 18 18 18 19 19 20 20 21 22 23 24 25 26 27 28 29 30 31 32 32 33
23 22 22 21 20 20 20 19 19 19 18 18 18 18 18 19 19 19 20 20 20 19 19 19 20 20 21 21 22 23 24 25 25 26 28 28 29 30 31 32 33 33 34 35
23 23 23 22 21 21 21 21 21 20 20 19 19 19 19 20 20 21 21 21 21 20 21 21 22 22 23 24 25 25 26 27 28 29 30 31 32 33 34 34 35 36 36 37
23 24 24 23 23 23 23 22 22 22 21 21 21 21 21 21 21 22 22 22 23 23 23 23 23 24 25 26 27 28 28 29 30 31 32 33 34 35 36 37 37 38 38 39
25 25 25 24 25 25 24 24 23 23 23 23 23 22 23 23 23 23 24 24 25 25 25 25 25 26 27 28 29 30 31 32 33 33 34 35 36 37 38 38 38 39 40 41
Wind_Direction
174 177 182 187 187 187 190 193 195 199 201 200 197 193 190 193 196 194 193 198 207 213 217 223 230 238 242 247 254 266 286 310 325 338 355 0 3 8 8 8 9 9 10 12
175 178 180 183 185 188 189 192 192 191 194 198 197 191 192 196 198 197 200 202 209 213 217 224 232 235 236 242 252 260 281 297 302 314 340 349 352 357 0 6 9 12 16 17
175 177 181 184 185 185 187 191 192 193 187 188 192 191 197 201 203 202 207 207 209 216 223 228 232 231 235 242 252 257 267 281 283 298 325 336 342 350 355 0 4 9 13 13
167 172 177 180 184 181 184 186 183 183 190 193 196 202 209 212 208 206 210 211 217 222 225 231 233 238 243 248 252 255 264 273 278 284 295 309 323 336 346 353 358 2 7 7
167 169 171 174 178 178 180 184 183 183 188 198 207 213 215 214 211 211 215 218 221 224 228 235 241 245 248 251 253 253 258 262 268 274 283 292 309 325 340 351 355 357 359 2
169 170 174 176 177 183 184 185 182 187 194 208 215 219 217 216 214 216 216 221 223 224 231 240 245 249 253 254 254 247 245 249 253 260 268 280 299 321 334 346 351 354 355 356
168 171 176 178 180 186 187 182 183 192 206 217 220 226 221 216 217 218 217 221 226 226 234 241 246 251 256 256 248 237 240 243 247 253 260 277 289 305 324 338 348 351 352 353
170 177 180 183 187 190 193 194 196 203 214 219 221 223 219 219 219 219 221 227 232 235 239 239 244 253 255 249 240 238 240 244 249 251 256 265 276 290 308 325 336 340 342 347
173 179 183 188 194 197 199 204 207 210 213 220 224 223 218 218 218 222 229 234 240 239 240 240 242 249 250 245 238 240 242 245 246 249 253 258 268 281 293 307 323 329 334 341
179 184 186 188 191 198 205 206 208 210 212 220 224 224 222 222 223 226 232 234 237 238 240 241 243 246 245 240 241 240 242 240 239 246 253 258 265 275 285 301 311 317 323 329
180 186 189 192 198 205 202 205 213 218 220 222 225 225 225 231 230 230 230 233 236 234 234 232 236 241 242 239 239 236 238 239 241 248 251 259 262 264 278 294 301 307 312 317
183 187 194 202 208 210 214 220 224 227 231 230 228 225 225 225 229 227 228 231 236 240 240 238 243 249 246 241 241 239 240 241 244 250 252 257 257 266 279 292 301 305 310 315
190 193 198 209 215 219 225 229 231 229 226 222 221 220 224 229 232 229 230 235 239 241 242 244 248 250 245 242 244 242 242 250 252 254 254 257 262 272 281 291 299 304 307 310
202 200 202 212 222 228 227 229 231 229 226 222 222 223 227 233 235 234 235 239 242 245 246 246 247 249 244 241 244 244 247 255 258 257 256 262 268 277 286 293 297 301 305 308
215 215 220 224 229 231 232 235 236 236 234 230 226 225 229 235 238 239 241 243 245 247 248 249 249 248 244 244 247 249 250 255 256 258 260 265 272 279 284 291 297 299 302 306
224 226 229 234 238 240 241 244 245 243 241 235 230 230 234 238 242 243 247 249 248 250 251 252 251 248 245 246 249 252 254 255 258 263 268 273 278 281 283 288 295 299 301 302
233 234 235 241 247 249 249 248 248 247 245 241 238 236 237 241 245 247 249 252 252 252 254 255 253 247 245 247 250 254 255 258 261 266 271 277 280 283 285 289 294 296 299 302
236 239 242 246 250 251 247 249 251 249 246 247 244 241 241 245 250 249 251 254 256 255 254 253 251 248 248 251 255 257 259 262 266 271 276 282 283 283 287 291 294 297 299 301
237 241 245 249 252 252 251 251 250 249 247 249 247 246 247 250 253 251 251 253 253 254 254 252 250 250 252 255 258 260 263 267 269 274 279 282 285 287 290 293 295 297 298 299
241 244 248 251 253 254 252 251 252 252 250 249 249 249 251 253 255 255 254 254 254 254 254 252 252 254 256 260 263 264 267 269 272 275 279 283 287 290 292 294 295 296 297 299
244 247 250 253 255 255 254 254 255 255 254 251 252 252 252 253 254 254 253 254 255 256 257 255 257 258 260 263 267 268 270 272 274 277 280 283 287 290 291 293 294 295 296 297
247 249 250 252 254 255 254 256 257 255 255 254 254 254 254 253 254 254 256 258 259 261 262 260 261 262 263 266 269 271 271 273 276 279 282 284 287 289 292 293 294 295 295 295
248 250 251 251 252 253 254 255 256 256 257 256 256 256 257 257 257 257 258 260 261 263 264 265 264 265 266 268 270 272 274 275 278 280 282 285 286 289 291 292 294 294 294 296
249 250 250 251 250 251 253 255 256 256 257 257 256 257 258 259 259 260 261 262 262 263 266 267 268 267 267 270 272 274 276 278 279 281 283 285 286 288 290 291 293 294 295 296
250 250 251 251 251 251 252 255 256 257 258 258 259 260 260 261 261 262 263 264 265 266 267 269 270 271 272 273 274 276 278 279 280 282 283 285 287 289 290 291 292 293 294 296
250 250 250 250 250 251 253 254 256 257 259 260 261 262 262 263 264 265 267 267 268 269 270 271 272 273 274 276 276 278 279 280 282 283 284 285 287 289 291 292 293 294 295 296
Height
5833 5837 5839 5842 5845 5848 5851 5854 5856 5859 5861 5863 5865 5867 5869 5871 5873 5875 5877 5879 5880 5881 5883 5884 5884 5885 5885 5885 5885 5885 5885 5885 5885 5884 5884 5883 5882 5881 5880 5879 5878 5876 5875 5873
5834 5837 5839 5842 5845 5848 5850 5853 5856 5858 5860 5863 5864 5866 5868 5870 5872 5874 5876 5877 5879 5880 5881 5883 5883 5884 5884 5884 5884 5884 5884 5884 5883 5883 5883 5882 5882 5881 5880 5878 5877 5876 5875 5873
5835 5838 5840 5843 5846 5848 5850 5853 5855 5858 5860 5862 5864 5866 5868 5870 5871 5873 5875 5876 5878 5879 5880 5881 5882 5883 5883 5883 5883 5883 5882 5882 5882 5882 5882 5881 5880 5880 5879 5878 5877 5875 5874 5873
5836 5838 5841 5844 5846 5848 5851 5853 5856 5858 5860 5862 5865 5866 5867 5869 5870 5872 5874 5875 5877 5878 5879 5880 5881 5881 5881 5881 5881 5881 5881 5881 5880 5880 5880 5880 5879 5879 5878 5877 5876 5875 5874 5872
5838 5839 5842 5844 5846 5849 5851 5853 5856 5858 5860 5862 5864 5865 5867 5868 5869 5871 5873 5874 5875 5877 5878 5879 5879 5879 5879 5879 5879 5879 5879 5879 5879 5879 5878 5878 5877 5877 5876 5875 5875 5874 5873 5872
5839 5841 5843 5845 5847 5849 5851 5854 5856 5858 5860 5862 5863 5865 5866 5867 5868 5870 5871 5872 5874 5875 5876 5877 5877 5877 5877 5877 5877 5877 5877 5877 5877 5877 5876 5876 5876 5875 5875 5874 5874 5873 5872 5871
5840 5842 5843 5845 5847 5850 5852 5855 5857 5858 5860 5861 5862 5863 5865 5865 5867 5869 5870 5871 5872 5873 5874 5875 5875 5875 5875 5875 5875 5875 5875 5875 5875 5875 5875 5874 5874 5874 5873 5873 5872 5872 5871 5870
5841 5843 5845 5846 5848 5849 5852 5854 5857 5859 5860 5860 5861 5862 5864 5864 5866 5867 5868 5870 5871 5871 5872 5873 5873 5873 5873 5873 5872 5872 5872 5873 5872 5872 5872 5872 5872 5871 5871 5871 5871 5870 5870 5869
5842 5844 5845 5846 5848 5849 5851 5853 5855 5857 5858 5860 5860 5862 5863 5863 5864 5866 5867 5868 5869 5869 5870 5870 5871 5871 5871 5870 5870 5870 5870 5870 5870 5870 5870 5869 5869 5869 5869 5869 5869 5869 5869 5868
5842 5844 5845 5846 5847 5849 5851 5852 5854 5856 5857 5859 5860 5861 5862 5862 5863 5864 5865 5866 5867 5867 5868 5868 5869 5869 5868 5868 5868 5868 5867 5867 5867 5867 5867 5867 5867 5867 5867 5868 5868 5868 5867 5867
5841 5844 5845 5846 5847 5848 5850 5852 5853 5854 5856 5858 5859 5862 5860 5861 5861 5862 5863 5864 5865 5865 5866 5866 5866 5867 5866 5866 5866 5866 5865 5865 5864 5864 5864 5865 5865 5865 5866 5866 5866 5866 5865 5865
5841 5843 5844 5846 5847 5847 5849 5850 5851 5853 5854 5855 5857 5861 5858 5859 5859 5860 5861 5862 5863 5863 5863 5864 5864 5865 5864 5864 5864 5864 5864 5863 5863 5863 5863 5863 5863 5864 5864 5864 5864 5863 5863 5862
5841 5843 5844 5846 5848 5848 5848 5848 5849 5851 5852 5853 5855 5859 5856 5856 5857 5858 5859 5860 5860 5861 5861 5861 5862 5862 5862 5862 5862 5862 5862 5861 5861 5861 5861 5861 5861 5862 5862 5862 5861 5861 5860 5859
5840 5842 5844 5846 5845 5845 5846 5847 5848 5849 5850 5851 5853 5854 5854 5854 5855 5856 5856 5857 5857 5858 5858 5859 5859 5860 5860 5860 5860 5860 5860 5859 5859 5859 5859 5859 5860 5860 5859 5859 5858 5857 5857 5855
5839 5841 5841 5842 5843 5843 5844 5845 5845 5846 5847 5849 5850 5851 5852 5852 5852 5853 5854 5854 5855 5855 5855 5856 5856 5857 5857 5857 5857 5858 5858 5857 5857 5857 5857 5857 5857 5857 5856 5856 5855 5854 5853 5851
5837 5838 5839 5840 5841 5841 5842 5843 5843 5844 5844 5845 5847 5848 5849 5849 5849 5850 5851 5851 5852 5852 5852 5853 5853 5853 5854 5854 5855 5855 5855 5855 5855 5855 5855 5855 5854 5853 5853 5852 5851 5850 5849 5847
5834 5836 5837 5838 5838 5839 5840 5841 5841 5841 5842 5843 5844 5846 5845 5846 5846 5847 5848 5848 5849 5849 5849 5849 5849 5850 5850 5851 5851 5852 5852 5852 5852 5852 5851 5851 5850 5849 5849 5848 5846 5845 5844 5842
5832 5833 5834 5835 5836 5837 5840 5838 5838 5838 5839 5839 5840 5841 5842 5842 5843 5844 5844 5845 5845 5845 5845 5845 5845 5846 5847 5847 5848 5848 5848 5848 5848 5848 5848 5847 5846 5845 5844 5843 5841 5840 5838 5837
5828 5829 5830 5831 5832 5833 5835 5834 5834 5834 5835 5836 5836 5837 5838 5839 5839 5840 5840 5841 5842 5842 5842 5842 5842 5842 5843 5843 5844 5844 5844 5844 5844 5844 5843 5842 5841 5840 5839 5837 5836 5834 5832 5830
5824 5825 5826 5827 5828 5829 5831 5830 5830 5832 5832 5832 5832 5833 5834 5835 5836 5837 5837 5837 5837 5838 5838 5838 5838 5839 5839 5839 5839 5840 5840 5840 5839 5839 5838 5837 5836 5834 5833 5831 5830 5828 5826 5823
5819 5820 5821 5822 5822 5824 5825 5825 5826 5828 5829 5828 5828 5829 5830 5830 5832 5832 5832 5833 5833 5833 5834 5834 5834 5834 5835 5835 5835 5835 5835 5834 5834 5833 5832 5831 5830 5828 5827 5825 5822 5820 5818 5816
5814 5815 5816 5817 5818 5821 5819 5820 5821 5822 5822 5822 5823 5824 5825 5826 5826 5827 5827 5828 5829 5829 5829 5829 5829 5829 5829 5830 5830 5829 5829 5828 5827 5827 5826 5824 5823 5821 5819 5817 5815 5812 5810 5807
5808 5810 5810 5812 5814 5814 5814 5814 5815 5816 5816 5817 5818 5819 5820 5821 5821 5822 5822 5823 5823 5823 5823 5823 5823 5823 5823 5823 5823 5823 5822 5822 5821 5820 5818 5817 5815 5813 5811 5809 5807 5804 5801 5798
5801 5803 5804 5805 5807 5807 5807 5808 5809 5810 5811 5812 5812 5813 5814 5815 5816 5816 5817 5817 5817 5817 5817 5817 5817 5817 5817 5817 5816 5816 5815 5814 5813 5812 5810 5809 5807 5805 5803 5800 5798 5795 5792 5789
5795 5796 5797 5798 5800 5800 5801 5802 5803 5804 5805 5806 5807 5808 5808 5809 5810 5810 5810 5811 5811 5811 5811 5811 5811 5811 5810 5810 5809 5808 5807 5806 5805 5804 5802 5800 5798 5796 5793 5791 5788 5785 5782 5778
5788 5789 5790 5792 5793 5793 5795 5795 5796 5797 5798 5799 5800 5801 5802 5802 5803 5803 5803 5804 5804 5804 5804 5804 5803 5803 5802 5802 5801 5800 5799 5797 5796 5794 5793 5791 5788 5786 5783 5781 5778 5775 5772 5768